TimeCDT,TemperatureF,Dew PointF,Humidity,Sea Level PressureIn,VisibilityMPH,Wind Direction,Wind SpeedMPH,Gust SpeedMPH,PrecipitationIn,Events,Conditions,WindDirDegrees,DateUTC
12:53 AM,48.9,39.0,69,29.91,10.0,WNW,10.4,-,N/A,,Clear,300,2011-10-13 05:53:00
1:53 AM,48.0,37.9,68,29.91,10.0,WNW,10.4,-,N/A,,Clear,290,2011-10-13 06:53:00
2:53 AM,46.9,37.9,71,29.91,10.0,WNW,10.4,-,N/A,,Clear,290,2011-10-13 07:53:00
3:53 AM,46.9,37.0,68,29.91,10.0,WNW,10.4,-,N/A,,Clear,290,2011-10-13 08:53:00
4:53 AM,45.0,37.0,74,29.91,10.0,WNW,10.4,-,N/A,,Clear,290,2011-10-13 09:53:00
5:53 AM,45.0,36.0,71,29.94,10.0,WNW,13.8,-,N/A,,Clear,290,2011-10-13 10:53:00
6:53 AM,44.1,35.1,71,29.94,10.0,West,11.5,-,N/A,,Clear,280,2011-10-13 11:53:00
7:53 AM,42.1,35.1,76,29.94,10.0,West,9.2,-,N/A,,Clear,280,2011-10-13 12:53:00
8:53 AM,48.0,36.0,63,29.95,10.0,WNW,16.1,-,N/A,,Clear,290,2011-10-13 13:53:00
9:53 AM,55.9,36.0,47,29.95,10.0,WNW,13.8,-,N/A,,Clear,300,2011-10-13 14:53:00
10:53 AM,63.0,36.0,37,29.95,10.0,WNW,16.1,-,N/A,,Clear,290,2011-10-13 15:53:00
11:53 AM,66.9,36.0,32,29.94,10.0,West,15.0,-,N/A,,Clear,280,2011-10-13 16:53:00
12:53 PM,70.0,32.0,25,29.91,10.0,WNW,17.3,24.2,N/A,,Clear,290,2011-10-13 17:53:00
1:53 PM,72.0,28.9,20,29.88,10.0,WNW,15.0,20.7,N/A,,Clear,290,2011-10-13 18:53:00
2:53 PM,71.6,28.4,20,29.86,10.0,WNW,13.8,25.3,N/A,,Clear,290,2011-10-13 19:53:00
3:53 PM,73.0,28.0,19,29.83,10.0,NW,19.6,-,N/A,,Clear,310,2011-10-13 20:53:00
4:53 PM,72.0,28.9,20,29.82,10.0,NNW,15.0,21.9,N/A,,Clear,330,2011-10-13 21:53:00
5:53 PM,70.0,30.9,24,29.83,10.0,NNW,11.5,-,N/A,,Clear,340,2011-10-13 22:53:00
6:53 PM,60.1,36.0,41,29.85,10.0,North,6.9,-,N/A,,Clear,350,2011-10-13 23:53:00
7:53 PM,55.9,35.1,45,29.88,10.0,NNW,8.1,-,N/A,,Clear,340,2011-10-14 00:53:00
8:53 PM,52.0,36.0,54,29.90,10.0,NNW,5.8,-,N/A,,Clear,340,2011-10-14 01:53:00
9:53 PM,48.9,36.0,61,29.91,9.0,NW,4.6,-,N/A,,Clear,310,2011-10-14 02:53:00
10:53 PM,46.9,36.0,66,29.92,10.0,WNW,6.9,-,N/A,,Clear,290,2011-10-14 03:53:00
11:53 PM,50.0,36.0,59,29.92,10.0,WNW,6.9,-,N/A,,Clear,290,2011-10-14 04:53:00